Preview of NWS' New Version of Forecast
This preview is not operational and should not be used for support decisions.

Regional Weather Roundup (RWR)

Issued by National Weather Service (NWS)

                            
000
ASCA42 TJSJ 241210
RWRPR 
PUERTO RICO/U.S. VIRGIN ISLANDS HOURLY WEATHER ROUNDUP
NATIONAL WEATHER SERVICE SAN JUAN PR
800 AM AST WED APR 24 2019

PRZ001>002-007>008-010-241300-
PUERTO RICO
  
CITY           SKY/WX    TMP DP  RH WIND       PRES   REMARKS
SAN JUAN LMM   MOSUNNY   79  66  65 S3        29.99R                  
AGUADILLA      SUNNY     75  66  73 E5        30.00R                  
CEIBA          MOSUNNY   81  66  61 E7        30.00R                  
$$

VIZ001>002-241300-
U.S. VIRGIN ISLANDS
  
CITY           SKY/WX    TMP DP  RH WIND       PRES   REMARKS
CHARLOTTE AMA  MOSUNNY   81  66  61 E8        29.98R                  
CHRISTIANSTED  MOSUNNY   79  66  65 SE8       29.99R                  
$$

HOURLY WEATHER ROUNDUP FOR THE NEWS MEDIA
  
CITY           SKY/WX    TMP DP  RH WIND       PRES   REMARKS
ORLANDO        FAIR      67  63  87 NW3       30.08R                  
NEW YORK       FAIR      65  53  65 NW16G24   29.73R                  
NEWARK         FAIR      65  49  56 NW14      29.73R                  
CHICAGO        PTSUNNY   44  38  79 E5        30.04R                  
HARTFORD       FAIR      54  52  93 SW9       29.66F                  
BOSTON         CLOUDY    54  49  83 SW10      29.67F                  
DALLAS         LGT RAIN  62  59  90 SE13G22   29.88F                  
PHILADELPHIA   FAIR      64  44  48 W17       29.80R                  
LOS ANGELES    MOCLDY    58  56  93 E7        29.96S FOG              
WASHINGTON DC  PTSUNNY   66  50  56 NW18G29   29.85R